Find Kosmos-1287

NORAD ID: 12636 Int'l Des: 1981-074 Owner: GUKOS Country: SU operational
LEOCIRCULAR

Live Position

Loading 3D Globe...

About Kosmos-1287

Description loading...

Upcoming Passes

Passes for default location (London). Set your location on the main map for personalized predictions.

Altitude History

Loading altitude history...

Two-Line Element Set

1 12636U 81074A 26105.59526076 -.00000009 00000-0 43710-4 0 9991
2 12636 74.0313 286.0418 0030295 103.4174 257.0253 12.44354382 30649
Epoch: Apr 15, 2026 • Age: 10 hours

Current Status

Altitude 1474.0 km
Velocity 7.14 km/s
Sub-Earth Point 49.04°N, 127.12°W
Launch Date Aug 6, 1981
Age 44.6 years
Type other

Technical Details

Classification Payload
Mass 60.00 kg
Dry Mass 60.00 kg
Total Mass 60.00 kg
Length 0.80 m
Diameter 0.80 m
Span 0.80 m
Shape Poly
Manufacturer NPOPM
Bus Type Strela-1 11F625
Phase Status In Orbit
Owner/State GUKOS/SU

Most Searched